When you browse on this site, cookies collect data to enhance your experience and personalize the content and advertising you see.
Visit our Privacy Policy to learn more. By continuing to use the site, you agree to this use of cookies and data.

Tiempo cada hora Fier

Hoy, 6 Agosto, Jueves

Tiempo Temperatura Precipitaciones Viento Presión Humedad
00:00 +24°C° 0.1 mm 2 mps 755 mmHg 76%
01:00 +24°C° 0.1 mm 2 mps 755 mmHg 78%
02:00 +23°C° 0.3 mm 2 mps 755 mmHg 78%
03:00 +23°C° 0.3 mm 2 mps 755 mmHg 78%
04:00 +23°C° 0.3 mm 2 mps 755 mmHg 79%
05:00 +24°C° 0.2 mm 2 mps 755 mmHg 75%
06:00 +25°C° 0.2 mm 2 mps 755 mmHg 70%
07:00 +25°C° 0.2 mm 1 mps 755 mmHg 66%
08:00 +27°C° 0.1 mm 1 mps 755 mmHg 60%
09:00 +28°C° 0.1 mm 1 mps 756 mmHg 54%
10:00 +30°C° 0.1 mm 2 mps 756 mmHg 48%
11:00 +30°C° 0 mm 2 mps 756 mmHg 47%
12:00 +31°C° 0 mm 3 mps 756 mmHg 47%
13:00 +32°C° 0 mm 4 mps 756 mmHg 46%
14:00 +30°C° 0.6 mm 4 mps 756 mmHg 51%
15:00 +29°C° 0.6 mm 4 mps 756 mmHg 55%
16:00 +28°C° 0.6 mm 4 mps 756 mmHg 59%
17:00 +27°C° 0.7 mm 4 mps 756 mmHg 65%
18:00 +26°C° 0.7 mm 3 mps 756 mmHg 70%
19:00 +25°C° 0.7 mm 2 mps 757 mmHg 76%
20:00 +25°C° 0 mm 2 mps 757 mmHg 75%
21:00 +25°C° 0 mm 2 mps 757 mmHg 74%
22:00 +24°C° 0 mm 1 mps 757 mmHg 73%
23:00 +24°C° 0 mm 1 mps 757 mmHg 73%

Mañana, 7 Agosto, Viernes

Tiempo Temperatura Precipitaciones Viento Presión Humedad
00:00 +24°C° 0 mm 1 mps 757 mmHg 73%
01:00 +23°C° 0 mm 1 mps 757 mmHg 74%
02:00 +23°C° 0 mm 1 mps 757 mmHg 73%
03:00 +23°C° 0 mm 1 mps 757 mmHg 73%
04:00 +23°C° 0 mm 1 mps 757 mmHg 73%
05:00 +24°C° 0 mm 1 mps 757 mmHg 68%
06:00 +25°C° 0 mm 1 mps 757 mmHg 63%
07:00 +26°C° 0 mm 1 mps 757 mmHg 59%
08:00 +28°C° 0 mm 1 mps 757 mmHg 54%
09:00 +29°C° 0 mm 2 mps 757 mmHg 49%
10:00 +31°C° 0 mm 2 mps 758 mmHg 44%
11:00 +31°C° 0 mm 3 mps 758 mmHg 44%
12:00 +33°C° 0 mm 4 mps 757 mmHg 44%
13:00 +33°C° 0 mm 4 mps 757 mmHg 44%
14:00 +32°C° 0.2 mm 4 mps 757 mmHg 47%
15:00 +30°C° 0.2 mm 4 mps 757 mmHg 50%
16:00 +30°C° 0.2 mm 4 mps 757 mmHg 53%
17:00 +28°C° 0.2 mm 4 mps 757 mmHg 60%
18:00 +27°C° 0.2 mm 3 mps 757 mmHg 66%
19:00 +25°C° 0.2 mm 2 mps 757 mmHg 72%
20:00 +25°C° 0 mm 2 mps 757 mmHg 72%
21:00 +25°C° 0 mm 2 mps 758 mmHg 72%
22:00 +24°C° 0 mm 1 mps 758 mmHg 72%
23:00 +24°C° 0.1 mm 1 mps 757 mmHg 72%

Pasado mañana, 8 Agosto, Sábado

Tiempo Temperatura Precipitaciones Viento Presión Humedad
00:00 +24°C° 0.1 mm 1 mps 757 mmHg 71%
01:00 +24°C° 0.1 mm 1 mps 757 mmHg 71%
02:00 +24°C° 0 mm 1 mps 757 mmHg 71%
03:00 +24°C° 0 mm 1 mps 757 mmHg 70%
04:00 +23°C° 0 mm 1 mps 757 mmHg 70%
05:00 +25°C° 0 mm 1 mps 757 mmHg 66%
06:00 +26°C° 0 mm 1 mps 757 mmHg 61%
07:00 +27°C° 0 mm 1 mps 757 mmHg 57%
08:00 +28°C° 0 mm 2 mps 757 mmHg 52%
09:00 +30°C° 0 mm 2 mps 757 mmHg 47%
10:00 +32°C° 0 mm 2 mps 757 mmHg 42%
11:00 +33°C° 0 mm 3 mps 757 mmHg 42%
12:00 +33°C° 0 mm 4 mps 757 mmHg 42%
13:00 +34°C° 0 mm 4 mps 757 mmHg 42%
14:00 +32°C° 0.3 mm 4 mps 757 mmHg 49%
15:00 +29°C° 0.3 mm 4 mps 756 mmHg 56%
16:00 +28°C° 0.3 mm 4 mps 756 mmHg 64%
17:00 +27°C° 0 mm 3 mps 756 mmHg 65%
18:00 +26°C° 0 mm 2 mps 757 mmHg 66%
19:00 +26°C° 0 mm 2 mps 757 mmHg 67%
20:00 +25°C° 0 mm 1 mps 757 mmHg 67%
21:00 +25°C° 0 mm 1 mps 757 mmHg 68%
22:00 +25°C° 0 mm 1 mps 757 mmHg 69%
23:00 +25°C° 0 mm 1 mps 757 mmHg 68%

9 Agosto, Domingo

Tiempo Temperatura Precipitaciones Viento Presión Humedad
00:00 +24°C° 0 mm 2 mps 757 mmHg 68%
01:00 +24°C° 0 mm 2 mps 756 mmHg 67%
02:00 +24°C° 0 mm 2 mps 756 mmHg 66%
03:00 +24°C° 0 mm 3 mps 756 mmHg 65%
04:00 +25°C° 0 mm 3 mps 756 mmHg 64%
05:00 +26°C° 0 mm 3 mps 756 mmHg 61%
06:00 +27°C° 0 mm 3 mps 756 mmHg 58%
07:00 +28°C° 0 mm 2 mps 756 mmHg 55%
08:00 +30°C° 0 mm 2 mps 757 mmHg 49%
09:00 +32°C° 0 mm 2 mps 757 mmHg 42%
10:00 +35°C° 0 mm 2 mps 757 mmHg 36%
11:00 +35°C° 0 mm 3 mps 757 mmHg 35%
12:00 +35°C° 0 mm 4 mps 756 mmHg 35%
13:00 +36°C° 0 mm 5 mps 756 mmHg 35%
14:00 +35°C° 0 mm 5 mps 756 mmHg 38%
15:00 +34°C° 0 mm 5 mps 756 mmHg 42%
16:00 +33°C° 0 mm 5 mps 756 mmHg 45%
17:00 +32°C° 0 mm 4 mps 756 mmHg 52%
18:00 +29°C° 0 mm 3 mps 756 mmHg 59%
19:00 +27°C° 0 mm 2 mps 756 mmHg 66%
20:00 +27°C° 0 mm 2 mps 756 mmHg 67%
21:00 +27°C° 0 mm 2 mps 757 mmHg 68%
22:00 +26°C° 0 mm 1 mps 757 mmHg 70%
23:00 +26°C° 0 mm 1 mps 757 mmHg 68%

10 Agosto, Lunes

Tiempo Temperatura Precipitaciones Viento Presión Humedad
00:00 +26°C° 0 mm 2 mps 757 mmHg 67%
01:00 +26°C° 0 mm 2 mps 757 mmHg 66%
02:00 +26°C° 0.1 mm 2 mps 757 mmHg 66%
03:00 +25°C° 0.1 mm 2 mps 757 mmHg 66%
04:00 +25°C° 0.1 mm 2 mps 757 mmHg 66%
05:00 +26°C° 0 mm 2 mps 757 mmHg 62%
06:00 +27°C° 0 mm 1 mps 757 mmHg 58%
07:00 +29°C° 0 mm 1 mps 757 mmHg 54%
08:00 +30°C° 0 mm 1 mps 757 mmHg 48%
09:00 +32°C° 0 mm 1 mps 757 mmHg 43%
10:00 +34°C° 0 mm 1 mps 757 mmHg 37%
11:00 +35°C° 0 mm 2 mps 757 mmHg 37%
12:00 +36°C° 0 mm 3 mps 757 mmHg 37%
13:00 +36°C° 0 mm 5 mps 757 mmHg 37%
14:00 +35°C° 0 mm 5 mps 757 mmHg 39%
15:00 +35°C° 0 mm 5 mps 757 mmHg 42%
16:00 +34°C° 0 mm 5 mps 757 mmHg 44%
17:00 +32°C° 0 mm 4 mps 757 mmHg 51%
18:00 +30°C° 0 mm 3 mps 757 mmHg 57%
19:00 +28°C° 0 mm 2 mps 757 mmHg 64%
20:00 +28°C° 0 mm 1 mps 758 mmHg 65%
21:00 +27°C° 0 mm 1 mps 758 mmHg 66%
22:00 +27°C° 0 mm 1 mps 758 mmHg 67%
23:00 +26°C° 0 mm 1 mps 758 mmHg 66%

11 Agosto, Martes

Tiempo Temperatura Precipitaciones Viento Presión Humedad
00:00 +26°C° 0 mm 1 mps 758 mmHg 66%
01:00 +26°C° 0 mm 1 mps 758 mmHg 65%
02:00 +26°C° 0 mm 1 mps 758 mmHg 64%
03:00 +25°C° 0 mm 1 mps 758 mmHg 63%
04:00 +25°C° 0 mm 1 mps 758 mmHg 62%
05:00 +27°C° 0 mm 1 mps 759 mmHg 57%
06:00 +28°C° 0 mm 1 mps 759 mmHg 52%
07:00 +29°C° 0 mm 1 mps 759 mmHg 47%
08:00 +31°C° 0 mm 1 mps 759 mmHg 42%
09:00 +34°C° 0 mm 2 mps 759 mmHg 38%
10:00 +36°C° 0 mm 2 mps 759 mmHg 33%
11:00 +36°C° 0 mm 3 mps 759 mmHg 34%
12:00 +36°C° 0 mm 4 mps 759 mmHg 34%
13:00 +36°C° 0 mm 5 mps 759 mmHg 35%
14:00 +36°C° 0 mm 5 mps 759 mmHg 37%
15:00 +35°C° 0 mm 5 mps 758 mmHg 40%
16:00 +34°C° 0 mm 5 mps 758 mmHg 42%
17:00 +32°C° 0 mm 4 mps 758 mmHg 50%
18:00 +30°C° 0 mm 3 mps 759 mmHg 57%
19:00 +28°C° 0 mm 2 mps 759 mmHg 64%
20:00 +28°C° 0 mm 1 mps 759 mmHg 65%
21:00 +27°C° 0 mm 1 mps 759 mmHg 66%
22:00 +27°C° 0 mm 1 mps 759 mmHg 67%
23:00 +26°C° 0 mm 1 mps 759 mmHg 67%
Mostrar más